User: anonymous   Login
Location: Huntington Beach
(33.6600°N, 117.9980°W)
Time: 23:37:06
(UTC-07:00)
Language:

Hubble Space Telescope - Orbit

View from above orbital plane
View from above orbital plane
View from above satellite
View from above satellite

Ground track
Ground track

The orbit data is extracted from the following two-line orbital elements,

1 20580U 90037B   15125.65436343  .00001716  00000-0  99465-4 0  9994
2 20580 028.4699 074.5747 0003074 138.3372 226.6088 15.07295947173383
Epoch (UTC): 05 May 2015 15:42:17
Eccentricity: 0.0003074
inclination: 28.4699°
perigee height: 542 km
apogee height: 546 km
right ascension of ascending node: 74.5747°
argument of perigee: 138.3372°
revolutions per day: 15.07295947
mean anomaly at epoch: 226.6088°
orbit number at epoch: 17338

The dashed part of the orbit path shows where the satellite is in the earth's shadow,  

DLR